Weather History for KBLH - June, 2014

Change the Weather History Date:

Wednesday, June 4, 2014

  Actual Average Record
Temperature  
Mean Temperature 88 °F -  
Max Temperature 105 °F 98 °F 113 °F (1996)
Min Temperature 73 °F 68 °F 57 °F (1999)
Cooling Degree Days 24    
Growing Degree Days 38 (Base 50)    
Moisture  
Dew Point 21 °F    
Average Humidity 9    
Maximum Humidity 21    
Minimum Humidity 4    
Precipitation  
Precipitation 0.00 in - - ()
Sea Level Pressure  
Sea Level Pressure 29.65 in    
Wind  
Wind Speed 7 mph (SSW)    
Max Wind Speed 16 mph    
Max Gust Speed -    
Visibility 10 miles    
Events      
Averages and records for this station are not official NWS values.
T = Trace of Precipitation, MM = Missing Value Source: NWS Daily Summary

Daily Weather History Graph

Daily Weather History Graph

Search for Another Location

Airport or City:

Trip Planner

Search our weather history database for the weather conditions in past years. The results will help you decide how hot, cold, wet, or windy it might be!

Date:

Astronomy

Jun. 04, 2014 Rise Set
Actual Time 5:28 AM PDT 7:45 PM PDT
Civil Twilight 5:00 AM PDT 8:14 PM PDT
Nautical Twilight 4:25 AM PDT 8:49 PM PDT
Astronomical Twilight 3:46 AM PDT 9:27 PM PDT
Moon 11:39 AM PDT No Moon Set
Length of Visible Light 15h 14m
Length of Day
14h 16m
Waxing Crescent, 40% of the Moon is Illuminated
Jun 4
Waxing Crescent
Jun 5
First Quarter
Jun 12
Full
Jun 19
Last Quarter
Jun 27
New

Hourly Weather History & Observations

Time (PDT) Temp. Dew Point Humidity Pressure Visibility Wind Dir Wind Speed Gust Speed Precip Events Conditions
12:52 AM 87.1 °F 18.0 °F 8% 29.65 in 10.0 mi Variable 6.9 mph - N/A   Clear
1:52 AM 84.0 °F 24.1 °F 11% 29.65 in 10.0 mi WSW 9.2 mph - N/A   Clear
2:52 AM 79.0 °F 28.0 °F 15% 29.65 in 10.0 mi South 3.5 mph - N/A   Clear
3:52 AM 81.0 °F 37.0 °F 21% 29.65 in 10.0 mi WSW 16.1 mph - N/A   Clear
4:52 AM 73.0 °F 21.9 °F 15% 29.67 in 10.0 mi WNW 5.8 mph - N/A   Clear
5:52 AM 73.0 °F 23.0 °F 15% 29.69 in 10.0 mi NW 5.8 mph - N/A   Clear
6:52 AM 78.1 °F 23.0 °F 13% 29.70 in 10.0 mi NW 3.5 mph - N/A   Clear
8:52 AM 87.1 °F 18.0 °F 8% 29.73 in 10.0 mi WSW 8.1 mph - N/A   Clear
9:52 AM 91.0 °F 18.0 °F 7% 29.72 in 10.0 mi SSW 5.8 mph - N/A   Clear
10:52 AM 95.0 °F 17.1 °F 6% 29.71 in 10.0 mi Calm Calm - N/A   Clear
11:52 AM 98.1 °F 27.0 °F 8% 29.71 in 10.0 mi NE 9.2 mph - N/A   Clear
12:52 PM 99.0 °F 27.0 °F 8% 29.68 in 10.0 mi ESE 9.2 mph - N/A   Clear
1:52 PM 100.9 °F 12.0 °F 4% 29.67 in 10.0 mi Variable 3.5 mph - N/A   Clear
2:52 PM 104.0 °F 15.1 °F 4% 29.64 in 10.0 mi Variable 5.8 mph - N/A   Clear
3:52 PM 102.9 °F 19.0 °F 5% 29.62 in 10.0 mi ESE 9.2 mph - N/A   Clear
4:52 PM 102.0 °F 19.9 °F 5% 29.60 in 10.0 mi East 8.1 mph - N/A   Clear
5:52 PM 102.9 °F 23.0 °F 6% 29.59 in 10.0 mi East 6.9 mph - N/A   Clear
6:52 PM 100.9 °F 21.0 °F 6% 29.59 in 10.0 mi East 5.8 mph - N/A   Clear
7:52 PM 100.0 °F 18.0 °F 5% 29.60 in 10.0 mi Variable 3.5 mph - N/A   Clear
8:52 PM 93.9 °F 5.0 °F 4% 29.60 in 10.0 mi WSW 9.2 mph - N/A   Clear
9:52 PM 91.0 °F 9.0 °F 5% 29.62 in 10.0 mi WSW 10.4 mph - N/A   Clear
10:52 PM 86.0 °F 24.1 °F 10% 29.63 in 10.0 mi South 3.5 mph - N/A   Clear
11:52 PM 81.0 °F 33.1 °F 18% 29.63 in 10.0 mi South 8.1 mph - N/A   Clear